Regional Weather Roundup
Issued by NWS

Home | Current Version | Previous Version | Graphics & Text | Print | Product List | Glossary On
Versions: 1 2 3 4 5 6 7 8 9 10 11 12 13 14 15 16 17 18 19 20 21 22 23 24 25 26 27 28 29 30 31 32 33 34 35 36 37 38 39 40 41 42 43 44 45 46 47 48 49 50
000
ASUS43 KDTX 200901
RWRMI
MICHIGAN HOURLY REGIONAL WEATHER ROUNDUP
NATIONAL WEATHER SERVICE DETROIT/PONTIAC MI
400 AM EST SAT JAN 20 2018

NOTE: "FAIR" INDICATES FEW OR NO CLOUDS BELOW 12,000 FEET WITH NO
SIGNIFICANT WEATHER AND/OR OBSTRUCTION TO VISIBILITY.

MIZ047>049-052>055-059>063-066>070-074>076-081>083-201000-
SOUTHEAST LOWER MICHIGAN

CITY           SKY/WX    TMP DP  RH WIND       PRES   REMARKS
ADRIAN         FAIR      32  23  69 W12       29.83S WCI  23
ALMA           FAIR      37  29  73 SW10G20   29.74R WCI  29
ANN ARBOR      FAIR      32  24  72 S8        29.79S WCI  25
BAD AXE        FAIR      35  26  70 SW15G21   29.67R WCI  25
CARO           FAIR      36  27  69 SW15G21   29.70R WCI  26
DETROIT CITY   FAIR      35  24  64 SW15G23   29.79R WCI  25
DETROIT        CLOUDY    34  25  69 SW15      29.81R WCI  24
FLINT          FAIR      36  24  62 W14       29.75R WCI  27
GROSSE ILE     FAIR      35  25  69 SW13G20   29.81R WCI  26
HILLSDALE      FAIR      34  23  64 SW16G31   29.80S WCI  23
HOWELL         FAIR      35  26  69 SW13G21   29.76R WCI  27

CITY           SKY/WX    TMP DP  RH WIND       PRES   REMARKS
JACKSON        FAIR      34  24  67 SW16G24   29.79R WCI  24
LAMBERTVILLE   FAIR      34  24  67 SW13G21   29.84S WCI  25
LANSING        FAIR      37  26  64 SW15      29.77R WCI  28
LAPEER         FAIR      37  25  62 W15G23    29.74R WCI  28
MONROE         FAIR      33  24  68 SW15G22   29.82S WCI  23
MT. CLEMENS    FAIR     N/A N/A N/A SW10        N/A
PONTIAC        FAIR      37  25  61 SW14      29.74R WCI  28
PORT HOPE        N/A     36  26  67 SW13G21   29.63R WCI  27
PORT HURON     FAIR      34  23  64 SW7       29.75S WCI  28
TRI CITIES     FAIR      37  29  72 SW15G24   29.71R WCI  28
MIDLAND        FAIR      38  29  71 SW9       29.69R WCI  31
TROY           FAIR      34  25  69 SW8       29.79R WCI  27
SAGINAW HB     FAIR      34  27  75 SW12      29.71S WCI  25
$$
MIZ043>046-050>051-056>058-064>065-071>073-077>080-201000-
SOUTHWEST LOWER MICHIGAN

CITY           SKY/WX    TMP DP  RH WIND       PRES   REMARKS
BATTLE CREEK   FAIR      36  25  64 SW17      29.79S WCI  26
BENTON HARBOR  FAIR      39  26  59 SW23G31   29.82S WCI  28
BIG RAPIDS     FAIR      37  28  71 SW12      29.70R WCI  29
COLDWATER      FAIR      33  24  72 SW14      29.83R WCI  23
HOLLAND        FAIR      38  29  70 SW16G25   29.78R WCI  29
GRAND RAPIDS   FAIR      38  27  64 SW20G25   29.76R WCI  28
IONIA          FAIR      36  27  69 SW12      29.75R WCI  28
KALAMAZOO      FAIR      36  25  64 SW15      29.80S WCI  27
LUDINGTON      FAIR      36  32  85 SW9       29.72R WCI  29
MARSHALL       FAIR      34  24  67 SW14G24   29.79R WCI  24
MOUNT PLEASANT FAIR      37  28  70 SW10      29.70R WCI  30
MUSKEGON       FAIR      39  31  72 SW14      29.76R WCI  31
SOUTH HAVEN    FAIR      39  28  66 SW15G24   29.80S WCI  30
$$
MIZ016>042-201000-
NORTHERN LOWER MICHIGAN

CITY           SKY/WX    TMP DP  RH WIND       PRES   REMARKS
ALPENA         FAIR      39  29  67 W10       29.59R WCI  32
BEAVER ISLAND  FAIR      37  31  79 W10       29.64R WCI  29
CADILLAC       FAIR      35  29  77 W9G16     29.66R WCI  28
CHARLEVOIX     FAIR      38  31  76 SW16      29.67R WCI  29
FRANKFORT      FAIR      39  33  80 SW6       29.69R WCI  35
GAYLORD        FAIR      35  30  82 W14G22    29.60R WCI  26
GRAYLING       FAIR      36  27  70 W13G18    29.63R WCI  28
HARBOR SPRINGS FAIR      36  30  80 W5        29.64R WCI  32
HOUGHTON LAKE  FAIR      36  27  69 W9        29.64R WCI  29
MANISTEE       FAIR      38  30  73 W9        29.71R WCI  31
OSCODA         FAIR      34  27  74 SW9       29.61S WCI  27
PELLSTON       FAIR      38  30  73 W16G30    29.61R WCI  29
ROGERS CITY    FAIR      39  29  68 W9G24     29.58R WCI  32
TRAVERSE CITY  FAIR      40  30  67 SW8G17    29.66R WCI  34
$$
MIZ007>008-015-201000-
EASTERN UPPER MICHIGAN

CITY           SKY/WX    TMP DP  RH WIND       PRES   REMARKS
KINROSS        FAIR      34  28  79 W8        29.57R WCI  27
MACKINAC ISLAN FAIR      35  29  80 W18       29.59R WCI  24
NEWBERRY       FAIR      33  30  87 W10       29.58R WCI  25
S. S. MARIE    CLOUDY    39  29  67 W10G17    29.54R WCI  32
MUNISING         N/A     37  30  75 W6        29.60R WCI  32
$$
MIZ004>006-011>014-085-201000-
CENTRAL UPPER MICHIGAN

CITY           SKY/WX    TMP DP  RH WIND       PRES   REMARKS
ESCANABA       FAIR      31  26  82 SW3       29.66R
MENOMINEE      FAIR      37  28  70 W6        29.69R WCI  32
SAWYER-GWINN   FAIR      32  27  80 W7        29.60R WCI  26
$$
MIZ001>003-009>011-084-201000-
WESTERN UPPER MICHIGAN

CITY           SKY/WX    TMP DP  RH WIND       PRES   REMARKS
IRON MOUNTAIN  FAIR      34  27  75 W8        29.63R WCI  27
HOUGHTON       CLOUDY    37  29  72 W23G30    29.60R WCI  26
COPPER HARBOR    N/A     39  31  72 NW14G28   29.57R WCI  31
IRONWOOD       FAIR      30  27  88 W9        29.69R WCI  22
$$

ABBREVIATIONS USED IN REMARKS
   TC - TEMPERATURE IN CELSIUS
  WCI - WIND CHILL INDEX
   HX - HEAT INDEX
  VSB - VISIBILITY





USA.gov is the U.S. government's official web portal to all federal, state and local government web resources and services.